TimeMDT,TemperatureF,Dew PointF,Humidity,Sea Level PressureIn,VisibilityMPH,Wind Direction,Wind SpeedMPH,Gust SpeedMPH,PrecipitationIn,Events,Conditions,WindDirDegrees,DateUTC
12:53 AM,21.0,1.9,44,30.15,10.0,NNE,9.2,-,N/A,,Clear,30,2011-10-29 06:53:00
1:53 AM,21.9,-0.0,38,30.12,10.0,NE,11.5,-,N/A,,Clear,50,2011-10-29 07:53:00
2:53 AM,27.0,-2.9,27,30.06,10.0,North,12.7,-,N/A,,Clear,10,2011-10-29 08:53:00
3:53 AM,28.9,-6.0,22,30.04,10.0,North,13.8,19.6,N/A,,Clear,10,2011-10-29 09:53:00
4:53 AM,27.0,-2.9,27,30.06,10.0,North,8.1,-,N/A,,Clear,10,2011-10-29 10:53:00
5:53 AM,27.0,-2.0,29,30.10,10.0,North,8.1,-,N/A,,Clear,10,2011-10-29 11:53:00
6:53 AM,21.0,1.0,42,30.16,10.0,ENE,3.5,-,N/A,,Clear,70,2011-10-29 12:53:00
7:53 AM,19.0,1.0,46,30.20,10.0,Variable,6.9,-,N/A,,Clear,0,2011-10-29 13:53:00
8:53 AM,26.1,1.0,34,30.23,10.0,Calm,Calm,-,N/A,,Clear,0,2011-10-29 14:53:00
9:53 AM,32.0,1.9,28,30.17,10.0,NE,4.6,-,N/A,,Clear,50,2011-10-29 15:53:00
10:53 AM,35.1,1.9,25,30.14,10.0,North,9.2,-,N/A,,Clear,350,2011-10-29 16:53:00
11:53 AM,37.0,3.0,24,30.12,10.0,NNW,12.7,-,N/A,,Clear,330,2011-10-29 17:53:00
12:53 PM,39.0,1.0,20,30.06,10.0,NNW,13.8,21.9,N/A,,Clear,340,2011-10-29 18:53:00
1:53 PM,39.9,3.9,22,30.03,10.0,North,12.7,23.0,N/A,,Clear,10,2011-10-29 19:53:00
2:53 PM,39.9,7.0,26,29.98,10.0,North,11.5,20.7,N/A,,Clear,360,2011-10-29 20:53:00
3:53 PM,37.0,10.9,34,30.02,10.0,North,12.7,19.6,N/A,,Clear,350,2011-10-29 21:53:00
4:53 PM,35.1,9.0,34,30.07,10.0,NNE,11.5,21.9,N/A,,Mostly Cloudy,30,2011-10-29 22:53:00
5:53 PM,33.1,10.0,38,30.08,10.0,NNE,6.9,-,N/A,,Mostly Cloudy,30,2011-10-29 23:53:00
6:53 PM,30.9,10.0,42,30.16,10.0,North,8.1,-,N/A,,Partly Cloudy,350,2011-10-30 00:53:00
7:53 PM,30.9,9.0,40,30.13,10.0,NNE,15.0,27.6,N/A,,Clear,20,2011-10-30 01:53:00
8:40 PM,30.2,8.6,40,30.25,10.0,NNW,10.4,26.5,N/A,,Clear,330,2011-10-30 02:40:00
8:53 PM,30.9,9.0,40,30.11,10.0,NNW,19.6,28.8,N/A,,Clear,330,2011-10-30 02:53:00
9:53 PM,30.0,9.0,41,30.11,10.0,NNW,9.2,19.6,N/A,,Clear,330,2011-10-30 03:53:00
10:53 PM,28.9,10.0,45,30.10,10.0,Variable,4.6,-,N/A,,Clear,0,2011-10-30 04:53:00
11:53 PM,25.0,10.9,55,30.13,10.0,Calm,Calm,-,N/A,,Clear,0,2011-10-30 05:53:00